[[{"header":{"parameterUnit":"m.s-1","parameterCategory":1,"la1":30.2991,"la2":30.254,"lo1":-89.0895,"lo2":-89.0444,"dy":0.0017,"dx":0.0017,"nx":28,"ny":28,"refTime":"2023-03-13T21:00:00:Z","depth":0,"parameterNumber":2,"parameterNumberName":"U-component_of_WINDS"},"data":[0,0,0,0,0,0,0,0,0,0,0,0,0,0,0,0,0,0,0,0,0,0,0,0,0,0,0,0,0,0,0,0,0,0,0,0,0,0,0,0,0,0,0,0,0,0,0,0,0,0,0,0,0,0,0,0,0,0,-1.9688,-1.9688,0,-1.9732,-1.9732,-1.9733,-1.9681,-1.9679,-1.9677,-1.9675,-1.9721,-1.9724,-1.9727,0,0,0,0,0,0,0,0,0,0,0,0,0,-1.9556,-1.9559,-1.9688,-1.9688,-1.9689,-1.9732,-1.9733,-1.9733,-1.9681,-1.9679,-1.9676,-1.9674,-1.972,-1.9723,-1.9727,0,0,0,0,0,0,0,0,0,0,0,0,0,-1.9608,-1.956,-1.9687,-1.9668,-1.9667,-1.9732,-1.9733,-1.9733,-1.9682,-1.9679,-1.9676,-1.9673,-1.9719,-1.9723,-1.9728,-1.9814,0,0,-1.9741,-1.9743,0,0,0,0,0,0,0,0,-1.9605,-1.9613,-1.967,-1.9669,-1.9668,-1.9698,-1.9703,-1.976,-1.9682,-1.9676,-1.9675,-1.9671,-1.9716,-1.972,-1.9735,-1.9816,-1.9818,-1.9742,-1.9745,-1.9747,-1.9748,0,0,0,0,0,0,0,-1.9602,-1.9611,-1.9705,-1.9671,-1.967,-1.9656,-1.966,-1.9714,-1.9712,-1.9676,-1.9672,-1.9678,-1.9714,-1.9731,-1.9736,-1.9819,-1.9742,-1.9746,-1.9749,-1.975,-1.9971,-1.9974,0,0,0,0,0,0,-1.96,-1.9608,-1.9704,-1.9706,-1.9629,-1.9661,-1.9666,-1.9691,-1.9711,-1.9711,-1.9681,-1.9676,-1.9724,-1.973,-1.9737,-1.9838,-1.9747,-1.9751,-1.9753,-1.9968,-1.9972,-1.9975,0,0,0,0,0,0,-1.9598,-1.961,-1.9702,-1.9656,-1.9667,-1.9666,-1.9695,-1.9694,-1.971,-1.9714,-1.9714,-1.9698,-1.9722,-1.9731,-1.9795,-1.9839,-1.9753,-1.9757,-1.9965,-1.9969,-1.9974,-2.0043,0,0,0,0,0,0,-1.9594,-1.9609,-1.9642,-1.9657,-1.967,-1.976,-1.9698,-1.9697,-1.9718,-1.9712,-1.973,-1.9731,-1.9721,-1.9788,-1.9799,-1.9844,-1.9761,-1.9961,-1.9967,-1.9972,-2.0036,-2.0049,-2.006,0,0,0,0,0,-1.959,-1.9661,-1.9644,-1.9656,-1.9712,-1.9762,-1.9769,-1.9756,-1.9722,-1.9755,-1.9757,-1.973,-1.9833,-1.9795,-1.9807,-1.9854,-1.9958,-1.9965,-1.9972,-2.0031,-2.0047,-2.006,0,0,0,0,0,0,-1.9652,-1.9662,-1.9644,-1.9722,-1.9742,-1.9753,-1.9795,-1.9774,-1.9803,-1.9796,-1.9779,-1.9783,-1.9852,-1.9859,-1.9818,-1.9938,-1.9889,-1.9899,-1.993,-1.9945,-1.9957,-1.9953,-1.9764,0,0,0,0,0,-1.9674,-1.9715,-1.9722,-1.979,-1.98,-1.9796,-1.9818,-1.9806,-1.9825,-1.9833,-1.9841,-1.9861,-1.9897,-1.9921,-1.9955,-2.0037,-2.0039,-2.0075,-2.0087,-2.0096,-2.0105,-2.0147,-2.0162,-1.9999,-1.9998,-1.9998,0,0,-1.9722,-1.9732,-1.9759,-1.9803,-1.9816,-1.9858,-1.9804,-1.9851,-1.9881,-1.9841,-1.9901,-1.9907,-1.9928,-2.0001,-2.0033,-2.0009,-2.015,-2.0105,-2.0113,-2.0116,-2.0155,-2.0171,-2.0185,-2.0003,-2.0002,-2.0002,0,0,-1.9829,-1.9842,-1.9899,-1.9913,-1.9934,-1.993,-1.9944,-1.9959,-1.9961,-2.0021,-1.9991,-2.0027,-2.0091,-2.0106,-2.0122,-2.0233,-2.0208,-2.0244,-2.0306,-2.0347,-2.036,-2.0371,-2.0409,-2.0423,-2.0253,-2.0253,-2.0253,0,-1.9885,-1.9947,-1.9931,-1.998,-1.9999,-1.9963,-2.002,-2.0035,-2.0066,-2.008,-2.0052,-2.013,-2.0141,-2.0216,-2.0243,-2.0258,-2.0272,-2.0242,-2.0359,-2.037,-2.0381,-2.0417,-2.0431,-2.0257,-2.0257,-2.0256,-2.0256,0,-2.0014,-2.0058,-2.0101,-2.0131,-2.0155,-2.0208,-2.0199,-2.0225,-2.021,-2.0209,-2.027,-2.0283,-2.0317,-2.0334,-2.0321,-2.0407,-2.0391,-2.0362,-2.0313,-2.0401,-2.0434,-2.0448,-2.0263,-2.0262,-2.026,-2.0259,0,0,-2.0163,-2.0182,-2.0198,-2.021,-2.023,-2.0263,-2.0313,-2.0346,-2.0368,-2.039,-2.0431,-2.0485,-2.0457,-2.0475,-2.0463,-2.0499,-2.0584,-2.0465,-2.0465,-2.0486,-2.0677,-2.0699,-2.0715,-2.0567,-2.057,-2.0572,-2.0675,0,-2.027,-2.0357,-2.0342,-2.0426,-2.0465,-2.043,-2.0474,-2.049,-2.049,-2.0522,-2.0522,-2.0559,-2.0521,-2.0531,-2.0565,-2.0566,-2.0622,-2.0559,-2.0604,-2.0606,-2.06,-2.0733,-2.0756,-2.0853,-2.0688,-2.069,-2.0692,0,-2.0406,-2.0432,-2.0519,-2.053,-2.0546,-2.0586,-2.0614,-2.0645,-2.0662,-2.0659,-2.0679,-2.066,-2.0708,-2.0659,-2.0725,-2.0682,-2.07,-2.0703,-2.0706,-2.071,-2.0654,-2.0739,-2.0883,-2.0897,-2.0713,-2.0711,-2.071,0,-2.0504,-2.0561,-2.062,-2.0632,-2.0647,-2.0675,-2.0682,-2.0696,-2.0716,-2.0741,-2.0754,-2.0784,-2.0801,-2.0824,-2.0813,-2.0778,-2.0881,-2.083,-2.0879,-2.0879,-2.0902,-2.0901,-2.105,-2.0915,-2.0915,-2.0914,-2.0914,0,-2.0624,-2.0679,-2.0664,-2.07,-2.076,-2.0742,-2.0801,-2.0805,-2.0817,-2.0853,-2.0825,-2.0859,-2.0842,-2.0875,-2.0866,-2.0921,-2.093,-2.0928,-2.0925,-2.093,-2.093,-2.0941,-2.0934,-2.0918,-2.0917,-2.0916,-2.0916,0,-2.0744,-2.0737,-2.0798,-2.0807,-2.081,-2.0853,-2.086,-2.0893,-2.089,-2.0935,-2.0945,-2.094,-2.0977,-2.0968,-2.1008,-2.1002,-2.1071,-2.106,-2.1066,-2.1063,-2.1111,-2.1106,-2.1273,-2.1293,-2.1145,-2.1147,-2.1148,0,-2.0821,-2.0862,-2.0874,-2.0895,-2.0905,-2.094,-2.096,-2.0944,-2.0966,-2.0987,-2.1018,-2.1051,-2.1078,-2.1137,-2.1137,-2.1167,-2.1156,-2.1212,-2.1161,-2.1164,-2.1155,-2.1153,-2.1156,-2.1223,-2.1224,-2.1226,-2.1227,0,-2.0958,-2.0951,-2.0981,-2.1009,-2.1034,-2.1055,-2.1074,-2.1093,-2.1079,-2.1104,-2.1141,-2.1161,-2.1201,-2.1235,-2.1262,-2.1269,-2.1245,-2.1243,-2.1255,-2.1261,-2.1262,-2.126,-2.1093,-2.1239,-2.1238,-2.1237,-2.1236,-2.1236,-2.1058,-2.1091,-2.1104,-2.1138,-2.115,-2.1168,-2.1199,-2.1199,-2.1229,-2.126,-2.1249,-2.129,-2.1304,-2.1338,-2.1348,-2.138,-2.1358,-2.1377,-2.1382,-2.1386,-2.1391,-2.1257,-2.1385,-2.1384,-2.1384,-2.1384,-2.1383,0,-2.1191,-2.1198,-2.1229,-2.1255,-2.1281,-2.1256,-2.1275,-2.1299,-2.1335,-2.135,-2.1376,-2.1417,-2.1448,-2.145,-2.148,-2.1504,-2.1494,-2.1513,-2.151,-2.1512,-2.141,-2.1395,-2.152,-2.152,-2.152,-2.152,-2.152,-2.152,-2.1264,-2.1319,-2.1314,-2.1375,-2.138,-2.142,-2.1433,-2.1449,-2.146,-2.1507,-2.1533,-2.1534,-2.1543,-2.1572,-2.16,-2.1599,-2.1611,-2.1633,-2.1629,-2.1533,-2.1519,-2.1506,-2.1493,-2.1636,-2.1636,-2.1728,-2.1729,-2.1729]},{"header":{"parameterUnit":"m.s-1","parameterCategory":1,"la1":30.2991,"la2":30.254,"lo1":-89.0895,"lo2":-89.0444,"dy":0.0017,"dx":0.0017,"nx":28,"ny":28,"refTime":"2023-03-13T21:00:00:Z","depth":0,"parameterNumber":3,"parameterNumberName":"V-component_of_WINDS"},"data":[0,0,0,0,0,0,0,0,0,0,0,0,0,0,0,0,0,0,0,0,0,0,0,0,0,0,0,0,0,0,0,0,0,0,0,0,0,0,0,0,0,0,0,0,0,0,0,0,0,0,0,0,0,0,0,0,0,0,-4.8215,-4.8215,0,-4.8298,-4.8299,-4.83,-4.8231,-4.8228,-4.8225,-4.8222,-4.8305,-4.831,-4.8315,0,0,0,0,0,0,0,0,0,0,0,0,0,-4.7992,-4.7996,-4.8214,-4.8216,-4.8217,-4.8298,-4.8299,-4.83,-4.8231,-4.8228,-4.8224,-4.8221,-4.8304,-4.831,-4.8315,0,0,0,0,0,0,0,0,0,0,0,0,0,-4.8083,-4.7998,-4.8214,-4.8192,-4.8191,-4.8298,-4.8299,-4.83,-4.8232,-4.8228,-4.8224,-4.8219,-4.8302,-4.8309,-4.8316,-4.8448,0,0,-4.8339,-4.8342,0,0,0,0,0,0,0,0,-4.8078,-4.8091,-4.8194,-4.8194,-4.8193,-4.825,-4.8251,-4.835,-4.8233,-4.8217,-4.8222,-4.8217,-4.829,-4.8298,-4.8323,-4.8452,-4.8456,-4.8339,-4.8344,-4.8347,-4.8349,0,0,0,0,0,0,0,-4.8072,-4.8087,-4.8247,-4.8196,-4.8195,-4.8177,-4.8185,-4.8269,-4.8277,-4.8218,-4.8213,-4.8224,-4.8289,-4.8316,-4.8325,-4.8457,-4.8339,-4.8346,-4.835,-4.8353,-4.8696,-4.87,0,0,0,0,0,0,-4.8068,-4.8083,-4.8245,-4.825,-4.8124,-4.8184,-4.8194,-4.8236,-4.8275,-4.8277,-4.8227,-4.822,-4.8306,-4.8316,-4.8327,-4.8483,-4.8347,-4.8354,-4.8358,-4.8691,-4.8697,-4.8702,0,0,0,0,0,0,-4.8064,-4.8083,-4.8241,-4.8165,-4.8184,-4.8193,-4.8241,-4.824,-4.8267,-4.8283,-4.8283,-4.8254,-4.8303,-4.8317,-4.8418,-4.8485,-4.8357,-4.8364,-4.8685,-4.8693,-4.8699,-4.8796,0,0,0,0,0,0,-4.8058,-4.8082,-4.8134,-4.8167,-4.8188,-4.8332,-4.8245,-4.8244,-4.828,-4.8272,-4.8308,-4.831,-4.8301,-4.8408,-4.8426,-4.8493,-4.837,-4.8679,-4.8689,-4.8697,-4.8787,-4.8806,-4.8822,0,0,0,0,0,-4.805,-4.8157,-4.8136,-4.8156,-4.8253,-4.8336,-4.8348,-4.8336,-4.8286,-4.8337,-4.8346,-4.8309,-4.8475,-4.8419,-4.8438,-4.8509,-4.8675,-4.8686,-4.8696,-4.8779,-4.8802,-4.8821,0,0,0,0,0,0,-4.8131,-4.8161,-4.8139,-4.826,-4.8296,-4.8325,-4.8389,-4.8361,-4.8411,-4.8401,-4.8383,-4.8391,-4.8498,-4.8513,-4.845,-4.8637,-4.8567,-4.8582,-4.8623,-4.8645,-4.8662,-4.8656,-4.8376,0,0,0,0,0,-4.8164,-4.823,-4.8252,-4.8358,-4.8377,-4.838,-4.8416,-4.8403,-4.8439,-4.8454,-4.8471,-4.8507,-4.8567,-4.8607,-4.8663,-4.8789,-4.8795,-4.8847,-4.8864,-4.8878,-4.8891,-4.8957,-4.898,-4.8736,-4.8736,-4.8736,0,0,-4.8231,-4.8255,-4.8298,-4.8374,-4.8401,-4.8469,-4.8393,-4.8469,-4.8518,-4.8465,-4.8562,-4.8576,-4.8614,-4.8728,-4.8779,-4.8744,-4.896,-4.8892,-4.8903,-4.8908,-4.897,-4.8993,-4.9014,-4.8744,-4.8742,-4.8741,0,0,-4.8387,-4.8413,-4.8503,-4.8531,-4.8572,-4.8573,-4.8595,-4.8627,-4.8634,-4.8731,-4.8692,-4.875,-4.8854,-4.8883,-4.8911,-4.9077,-4.9044,-4.9096,-4.9186,-4.925,-4.9269,-4.9286,-4.9344,-4.9365,-4.9109,-4.9109,-4.9109,0,-4.8465,-4.8567,-4.8552,-4.8631,-4.8664,-4.862,-4.8709,-4.8737,-4.8794,-4.8818,-4.8778,-4.8906,-4.8929,-4.9048,-4.9089,-4.9114,-4.9136,-4.9091,-4.9268,-4.9285,-4.93,-4.9355,-4.9377,-4.9115,-4.9114,-4.9114,-4.9113,0,-4.866,-4.8731,-4.8798,-4.8855,-4.8896,-4.898,-4.8976,-4.902,-4.9003,-4.9008,-4.9105,-4.9131,-4.9191,-4.9218,-4.9203,-4.9335,-4.9312,-4.9271,-4.9199,-4.933,-4.9381,-4.9402,-4.9123,-4.9121,-4.9119,-4.9118,0,0,-4.8871,-4.8917,-4.8942,-4.8966,-4.9008,-4.9062,-4.9142,-4.9201,-4.9238,-4.9279,-4.9345,-4.9433,-4.9395,-4.9427,-4.9414,-4.9471,-4.9598,-4.9422,-4.9423,-4.9453,-4.9743,-4.9774,-4.9798,-4.9577,-4.9581,-4.9584,-4.974,0,-4.9028,-4.9169,-4.9158,-4.9291,-4.9355,-4.9313,-4.9383,-4.9415,-4.9421,-4.9476,-4.9482,-4.9544,-4.949,-4.9509,-4.9563,-4.9572,-4.9656,-4.956,-4.9637,-4.9639,-4.9628,-4.9825,-4.9858,-5.0004,-4.976,-4.9763,-4.9766,0,-4.9231,-4.9279,-4.9418,-4.9448,-4.9475,-4.9538,-4.959,-4.9643,-4.9678,-4.9678,-4.9714,-4.9691,-4.977,-4.9698,-4.9806,-4.9741,-4.9771,-4.978,-4.9785,-4.9791,-4.971,-4.9835,-5.005,-5.0072,-4.9797,-4.9795,-4.9792,0,-4.9369,-4.9468,-4.9564,-4.9586,-4.9624,-4.9669,-4.9687,-4.9717,-4.9753,-4.9798,-4.9821,-4.9875,-4.9904,-4.9945,-4.9937,-4.9885,-5.0047,-4.9974,-5.0048,-5.0048,-5.0083,-5.0081,-5.0305,-5.0105,-5.0105,-5.0104,-5.0104,0,-4.9545,-4.9632,-4.9626,-4.9685,-4.978,-4.9765,-4.9859,-4.9871,-4.9899,-4.9958,-4.9925,-4.9981,-4.9967,-5.0022,-5.0016,-5.0105,-5.0119,-5.012,-5.0117,-5.0123,-5.0123,-5.0142,-5.0131,-5.011,-5.0109,-5.0108,-5.0107,0,-4.9716,-4.9715,-4.9817,-4.9844,-4.9853,-4.9922,-4.9944,-4.9999,-5.0002,-5.0077,-5.0094,-5.0099,-5.0162,-5.0158,-5.0229,-5.0224,-5.0335,-5.032,-5.0323,-5.032,-5.0394,-5.0386,-5.0637,-5.0669,-5.0449,-5.0451,-5.0453,0,-4.9828,-4.9893,-4.9928,-4.9965,-4.9986,-5.0047,-5.0083,-5.007,-5.0109,-5.0153,-5.0202,-5.0262,-5.0309,-5.0412,-5.0421,-5.0475,-5.0461,-5.0545,-5.0468,-5.0471,-5.046,-5.0456,-5.0462,-5.0559,-5.0562,-5.0564,-5.0566,0,-5.0027,-5.0023,-5.0077,-5.013,-5.0174,-5.0216,-5.0253,-5.0286,-5.0276,-5.0321,-5.0386,-5.0422,-5.0495,-5.0554,-5.0605,-5.0622,-5.0592,-5.059,-5.0609,-5.0615,-5.0614,-5.0614,-5.0363,-5.0584,-5.0582,-5.0581,-5.058,-5.0579,-5.017,-5.0226,-5.0258,-5.0319,-5.0346,-5.0382,-5.0434,-5.0443,-5.0497,-5.0555,-5.0544,-5.0616,-5.0647,-5.0713,-5.0734,-5.0789,-5.0759,-5.0788,-5.0795,-5.0802,-5.081,-5.0606,-5.0798,-5.0798,-5.0797,-5.0797,-5.0797,0,-5.0366,-5.0385,-5.044,-5.0494,-5.0541,-5.051,-5.0549,-5.059,-5.0654,-5.0686,-5.0734,-5.0807,-5.0864,-5.0877,-5.0932,-5.0973,-5.0961,-5.0988,-5.0984,-5.0988,-5.0835,-5.0812,-5.0997,-5.0997,-5.0997,-5.0997,-5.0996,-5.0996,-5.0474,-5.0566,-5.0566,-5.067,-5.0687,-5.0758,-5.0783,-5.0815,-5.0841,-5.0924,-5.0971,-5.098,-5.1004,-5.1059,-5.111,-5.1112,-5.1133,-5.1166,-5.1162,-5.1019,-5.0999,-5.098,-5.0958,-5.1171,-5.1171,-5.1311,-5.1312,-5.1313]}]]